AAL2507 KPBI-KDFW

Flight info

Callsign AAL2507
Flight time N/A
Altitude 36000
Route OLAKE3 JAYMC Y280 REDFN FATSO AEX PNUTS BEREE3
Aircraft B738/M-SDE2E3FGHIRWXY/LB1

Departure

Time 2026-04-17 00:06
Airport Palm Beach International Airport (KPBI)

Arrival

Time N/A
Airport Dallas Fort Worth International Airport (KDFW)
Time Latitude Longitude Altitude Speed Heading
2026-04-16 23:51 26.68624 -80.09317 21 ft 0 kts 357°
2026-04-16 23:57 26.68602 -80.09317 22 ft 4 kts 11°
2026-04-16 23:58 26.68577 -80.09327 21 ft 4 kts 38°
2026-04-16 23:58 26.68560 -80.09349 22 ft 4 kts 71°
2026-04-16 23:58 26.68557 -80.09377 21 ft 4 kts 107°
2026-04-16 23:58 26.68562 -80.09390 21 ft 0 kts 128°
2026-04-17 00:00 26.68559 -80.09386 21 ft 2 kts 128°
2026-04-17 00:00 26.68541 -80.09360 21 ft 6 kts 128°
2026-04-17 00:01 26.68500 -80.09345 21 ft 8 kts 199°
2026-04-17 00:01 26.68446 -80.09387 21 ft 11 kts 187°
2026-04-17 00:01 26.68375 -80.09405 23 ft 12 kts 243°
2026-04-17 00:01 26.68373 -80.09497 21 ft 12 kts 274°
2026-04-17 00:02 26.68378 -80.09600 21 ft 15 kts 273°
2026-04-17 00:02 26.68383 -80.09723 21 ft 17 kts 272°
2026-04-17 00:02 26.68387 -80.09816 21 ft 19 kts 272°
2026-04-17 00:02 26.68394 -80.09971 21 ft 21 kts 273°
2026-04-17 00:03 26.68401 -80.10131 21 ft 20 kts 272°
2026-04-17 00:03 26.68408 -80.10286 21 ft 20 kts 272°
2026-04-17 00:03 26.68415 -80.10436 21 ft 19 kts 273°
2026-04-17 00:03 26.68421 -80.10581 21 ft 18 kts 273°
2026-04-17 00:04 26.68427 -80.10718 20 ft 17 kts 273°
2026-04-17 00:04 26.68412 -80.10814 22 ft 11 kts 213°
2026-04-17 00:04 26.68338 -80.10809 20 ft 11 kts 148°
2026-04-17 00:04 26.68317 -80.10732 20 ft 11 kts 93°
2026-04-17 00:05 26.68309 -80.10566 21 ft 47 kts 93°
2026-04-17 00:05 26.68283 -80.09952 21 ft 109 kts 93°
2026-04-17 00:05 26.68239 -80.08918 24 ft 156 kts 92°
2026-04-17 00:05 26.68184 -80.07627 361 ft 171 kts 91°
2026-04-17 00:06 26.68156 -80.06285 932 ft 175 kts 90°
2026-04-17 00:06 26.68202 -80.04907 1477 ft 184 kts 74°
2026-04-17 00:06 26.68789 -80.03569 1889 ft 199 kts 59°
2026-04-17 00:06 26.69513 -80.02213 2340 ft 210 kts 61°
2026-04-17 00:07 26.70253 -80.00704 2539 ft 232 kts 63°
2026-04-17 00:07 26.71228 -79.99169 2864 ft 253 kts 43°
2026-04-17 00:07 26.72614 -79.97937 3439 ft 262 kts 39°
2026-04-17 00:07 26.74215 -79.96927 4071 ft 273 kts 15°
2026-04-17 00:08 26.76136 -79.96628 4786 ft 279 kts
2026-04-17 00:08 26.78031 -79.97068 5687 ft 282 kts 331°
2026-04-17 00:08 26.79489 -79.98461 6720 ft 279 kts 306°
2026-04-17 00:08 26.80374 -80.00384 7602 ft 281 kts 290°
2026-04-17 00:09 26.81013 -80.02469 8435 ft 285 kts 288°
2026-04-17 00:09 26.81643 -80.04593 9290 ft 289 kts 289°
2026-04-17 00:09 26.82285 -80.06737 10160 ft 292 kts 290°
2026-04-17 00:09 26.82957 -80.08951 10570 ft 312 kts 290°
2026-04-17 00:10 26.83688 -80.11345 10749 ft 337 kts 290°
2026-04-17 00:10 26.84474 -80.13906 11027 ft 356 kts 290°
2026-04-17 00:10 26.85288 -80.16552 11600 ft 362 kts 290°
2026-04-17 00:10 26.86114 -80.19237 12207 ft 368 kts 290°
2026-04-17 00:11 26.86950 -80.21957 12886 ft 370 kts 290°
2026-04-17 00:11 26.87789 -80.24685 13635 ft 371 kts 290°
2026-04-17 00:11 26.88637 -80.27442 14181 ft 377 kts 289°
2026-04-17 00:11 26.89494 -80.30230 14796 ft 378 kts 290°
2026-04-17 00:12 26.90353 -80.33024 15395 ft 381 kts 289°
2026-04-17 00:12 26.91216 -80.35834 16054 ft 382 kts 289°
2026-04-17 00:12 26.92034 -80.38677 16603 ft 387 kts 287°
2026-04-17 00:12 26.92771 -80.41588 17167 ft 390 kts 285°
2026-04-17 00:13 26.93479 -80.44535 17688 ft 395 kts 285°
2026-04-17 00:13 26.94190 -80.47527 18195 ft 399 kts 284°
2026-04-17 00:13 26.94908 -80.50539 18722 ft 401 kts 284°
2026-04-17 00:13 26.95633 -80.53554 19322 ft 400 kts 285°
2026-04-17 00:14 26.96362 -80.56566 19883 ft 401 kts 285°
2026-04-17 00:14 26.97099 -80.59596 20282 ft 406 kts 285°
2026-04-17 00:14 26.97847 -80.62662 20715 ft 409 kts 285°
2026-04-17 00:14 26.98599 -80.65742 21224 ft 410 kts 285°
2026-04-17 00:15 26.99355 -80.68838 21677 ft 413 kts 285°
2026-04-17 00:15 27.00105 -80.71912 22104 ft 416 kts 285°
2026-04-17 00:15 27.00870 -80.75049 22539 ft 418 kts 285°
2026-04-17 00:15 27.01638 -80.78205 22971 ft 421 kts 285°
2026-04-17 00:16 27.02409 -80.81377 23395 ft 423 kts 285°
2026-04-17 00:16 27.03185 -80.84569 23784 ft 425 kts 285°
2026-04-17 00:16 27.03963 -80.87776 24137 ft 427 kts 285°
2026-04-17 00:16 27.04742 -80.90992 24514 ft 427 kts 285°
2026-04-17 00:17 27.05521 -80.94207 24924 ft 427 kts 285°
2026-04-17 00:17 27.06299 -80.97424 25301 ft 428 kts 285°
2026-04-17 00:17 27.07079 -81.00651 25639 ft 429 kts 285°
2026-04-17 00:17 27.07860 -81.03891 25970 ft 431 kts 285°
2026-04-17 00:18 27.08644 -81.07141 26301 ft 432 kts 285°
2026-04-17 00:18 27.09428 -81.10399 26635 ft 433 kts 285°
2026-04-17 00:18 27.10214 -81.13664 26961 ft 434 kts 285°
2026-04-17 00:18 27.11002 -81.16943 27280 ft 436 kts 285°
2026-04-17 00:19 27.11791 -81.20233 27594 ft 437 kts 285°
2026-04-17 00:19 27.12581 -81.23529 27907 ft 438 kts 285°
2026-04-17 00:19 27.13373 -81.26835 28204 ft 439 kts 286°
2026-04-17 00:19 27.14165 -81.30147 28513 ft 440 kts 285°
2026-04-17 00:20 27.14957 -81.33463 28858 ft 440 kts 286°
2026-04-17 00:20 27.15749 -81.36782 29150 ft 441 kts 286°
2026-04-17 00:20 27.16544 -81.40114 29433 ft 442 kts 286°
2026-04-17 00:20 27.17336 -81.43444 29816 ft 440 kts 286°
2026-04-17 00:21 27.18123 -81.46751 30269 ft 437 kts 286°
2026-04-17 00:21 27.18903 -81.50037 30659 ft 435 kts 286°
2026-04-17 00:21 27.19682 -81.53321 30939 ft 435 kts 286°
2026-04-17 00:21 27.20462 -81.56610 31196 ft 436 kts 286°
2026-04-17 00:22 27.22019 -81.63190 31851 ft 435 kts 285°
2026-04-17 00:22 27.22794 -81.66471 32210 ft 434 kts 285°
2026-04-17 00:22 27.23563 -81.69728 32685 ft 429 kts 285°
2026-04-17 00:23 27.24316 -81.72925 33028 ft 429 kts 285°
2026-04-17 00:23 27.25089 -81.76209 33283 ft 430 kts 285°
2026-04-17 00:23 27.25855 -81.79463 33558 ft 431 kts 285°
2026-04-17 00:23 27.26619 -81.82716 33907 ft 430 kts 285°
2026-04-17 00:24 27.27380 -81.85961 34229 ft 429 kts 285°
2026-04-17 00:24 27.28138 -81.89193 34527 ft 427 kts 285°
2026-04-17 00:24 27.28883 -81.92422 34833 ft 426 kts 284°
2026-04-17 00:24 27.29525 -81.95623 35143 ft 425 kts 283°
2026-04-17 00:25 27.30122 -81.98871 35423 ft 424 kts 282°
2026-04-17 00:25 27.30703 -82.02114 35707 ft 423 kts 282°
2026-04-17 00:25 27.31291 -82.05392 36002 ft 421 kts 282°
2026-04-17 00:25 27.31871 -82.08579 36094 ft 424 kts 283°
2026-04-17 00:26 27.33076 -82.15100 36099 ft 426 kts 283°
2026-04-17 00:26 27.34279 -82.21570 36100 ft 419 kts 283°
2026-04-17 00:27 27.35469 -82.27975 36109 ft 418 kts 283°
2026-04-17 00:27 27.36654 -82.34374 36107 ft 417 kts 283°
2026-04-17 00:28 27.37834 -82.40762 36112 ft 417 kts 282°
2026-04-17 00:28 27.39011 -82.47156 36111 ft 417 kts 282°
2026-04-17 00:29 27.40187 -82.53555 36121 ft 418 kts 282°
2026-04-17 00:29 27.41368 -82.59958 36120 ft 418 kts 283°
2026-04-17 00:30 27.42568 -82.66362 36114 ft 419 kts 283°
2026-04-17 00:30 27.43768 -82.72777 36118 ft 419 kts 283°
2026-04-17 00:31 27.44965 -82.79204 36119 ft 419 kts 282°
2026-04-17 00:31 27.46157 -82.85631 36125 ft 420 kts 282°
2026-04-17 00:32 27.47347 -82.92067 36128 ft 420 kts 282°
2026-04-17 00:32 27.48534 -82.98500 36127 ft 420 kts 282°
2026-04-17 00:33 27.49718 -83.04936 36130 ft 420 kts 282°
2026-04-17 00:33 27.50898 -83.11370 36130 ft 419 kts 282°
2026-04-17 00:34 27.52076 -83.17802 36130 ft 419 kts 282°
2026-04-17 00:34 27.53248 -83.24227 36133 ft 418 kts 282°
2026-04-17 00:35 27.54416 -83.30647 36130 ft 418 kts 282°
2026-04-17 00:35 27.55581 -83.37064 36131 ft 418 kts 282°
2026-04-17 00:36 27.56742 -83.43480 36134 ft 418 kts 282°
2026-04-17 00:36 27.57899 -83.49892 36133 ft 417 kts 282°
2026-04-17 00:37 27.59045 -83.56262 36134 ft 417 kts 282°
2026-04-17 00:37 27.60196 -83.62673 36133 ft 417 kts 282°
2026-04-17 00:38 27.61342 -83.69082 36133 ft 417 kts 282°
2026-04-17 00:38 27.62486 -83.75491 36133 ft 417 kts 282°
2026-04-17 00:39 27.63627 -83.81900 36133 ft 417 kts 282°
2026-04-17 00:39 27.64765 -83.88310 36133 ft 417 kts 282°
2026-04-17 00:40 27.65899 -83.94718 36133 ft 416 kts 281°
2026-04-17 00:40 27.67029 -84.01124 36132 ft 416 kts 281°
2026-04-17 00:41 27.68157 -84.07530 36138 ft 416 kts 281°
2026-04-17 00:41 27.69280 -84.13934 36139 ft 416 kts 281°
2026-04-17 00:42 27.70401 -84.20336 36140 ft 416 kts 281°
2026-04-17 00:42 27.71518 -84.26739 36139 ft 416 kts 281°
2026-04-17 00:43 27.72632 -84.33141 36142 ft 415 kts 281°
2026-04-17 00:43 27.73741 -84.39536 36135 ft 415 kts 281°
2026-04-17 00:44 27.74847 -84.45926 36136 ft 414 kts 281°
2026-04-17 00:44 27.75941 -84.52265 36136 ft 414 kts 281°
2026-04-17 00:45 27.77038 -84.58646 36139 ft 414 kts 281°
2026-04-17 00:45 27.78131 -84.65020 36139 ft 413 kts 281°
2026-04-17 00:46 27.79221 -84.71389 36139 ft 413 kts 281°
2026-04-17 00:46 27.80307 -84.77758 36135 ft 413 kts 281°
2026-04-17 00:47 27.81385 -84.84095 36124 ft 407 kts 280°
2026-04-17 00:47 27.82442 -84.90321 36129 ft 401 kts 280°
2026-04-17 00:48 27.83488 -84.96500 36137 ft 400 kts 280°
2026-04-17 00:48 27.84529 -85.02669 36136 ft 400 kts 280°
2026-04-17 00:49 27.85568 -85.08839 36139 ft 400 kts 280°
2026-04-17 00:49 27.86603 -85.15008 36137 ft 400 kts 280°
2026-04-17 00:50 27.87639 -85.21192 36137 ft 401 kts 280°
2026-04-17 00:50 27.88544 -85.26332 36134 ft 402 kts 284°
2026-04-17 00:51 27.90294 -85.32340 36130 ft 403 kts 288°
2026-04-17 00:51 27.92164 -85.38325 36132 ft 404 kts 288°
2026-04-17 00:52 27.94015 -85.44332 36133 ft 405 kts 288°
2026-04-17 00:52 27.95846 -85.50358 36130 ft 405 kts 287°
2026-04-17 00:53 27.97667 -85.56395 36134 ft 405 kts 287°
2026-04-17 00:53 27.99471 -85.62393 36142 ft 405 kts 287°
2026-04-17 00:54 28.01284 -85.68428 36139 ft 405 kts 287°
2026-04-17 00:54 28.03090 -85.74455 36127 ft 404 kts 287°
2026-04-17 00:55 28.04888 -85.80462 36129 ft 402 kts 287°
2026-04-17 00:55 28.06677 -85.86448 36130 ft 401 kts 287°
2026-04-17 00:56 28.08456 -85.92416 36129 ft 399 kts 287°
2026-04-17 00:56 28.10227 -85.98366 36129 ft 398 kts 287°
2026-04-17 00:57 28.11994 -86.04312 36131 ft 398 kts 287°
2026-04-17 00:57 28.13757 -86.10258 36132 ft 398 kts 287°
2026-04-17 00:58 28.15518 -86.16204 36133 ft 398 kts 287°
2026-04-17 00:58 28.17277 -86.22158 36132 ft 399 kts 287°
2026-04-17 00:59 28.19035 -86.28116 36127 ft 399 kts 287°
2026-04-17 00:59 28.20792 -86.34081 36130 ft 399 kts 287°
2026-04-17 01:00 28.22547 -86.40053 36132 ft 399 kts 287°
2026-04-17 01:00 28.24300 -86.46026 36130 ft 399 kts 287°
2026-04-17 01:01 28.26052 -86.52008 36128 ft 400 kts 287°
2026-04-17 01:01 28.27789 -86.57953 36130 ft 400 kts 287°
2026-04-17 01:02 28.29537 -86.63940 36126 ft 400 kts 287°
2026-04-17 01:02 28.31281 -86.69927 36125 ft 400 kts 287°
2026-04-17 01:03 28.33032 -86.75915 36127 ft 400 kts 287°
2026-04-17 01:03 28.34786 -86.81894 36133 ft 399 kts 287°
2026-04-17 01:04 28.36535 -86.87871 36123 ft 398 kts 287°
2026-04-17 01:04 28.38275 -86.93833 36124 ft 397 kts 286°
2026-04-17 01:05 28.40009 -86.99786 36127 ft 396 kts 286°
2026-04-17 01:05 28.41735 -87.05722 36124 ft 395 kts 286°
2026-04-17 01:06 28.43453 -87.11642 36127 ft 394 kts 286°
2026-04-17 01:06 28.45164 -87.17551 36128 ft 393 kts 286°
2026-04-17 01:07 28.46871 -87.23453 36125 ft 393 kts 286°
2026-04-17 01:07 28.48574 -87.29353 36125 ft 393 kts 286°
2026-04-17 01:08 28.50274 -87.35257 36128 ft 393 kts 286°
2026-04-17 01:08 28.51973 -87.41162 36125 ft 393 kts 286°
2026-04-17 01:09 28.53669 -87.47074 36130 ft 393 kts 286°
2026-04-17 01:09 28.55365 -87.52991 36128 ft 394 kts 286°
2026-04-17 01:10 28.57059 -87.58915 36125 ft 394 kts 286°
2026-04-17 01:10 28.58752 -87.64846 36126 ft 394 kts 286°
2026-04-17 01:11 28.60444 -87.70784 36126 ft 395 kts 286°
2026-04-17 01:11 28.62134 -87.76727 36125 ft 395 kts 286°
2026-04-17 01:12 28.63810 -87.82632 36128 ft 395 kts 286°
2026-04-17 01:12 28.65494 -87.88574 36136 ft 395 kts 285°
2026-04-17 01:13 28.67175 -87.94516 36126 ft 394 kts 285°
2026-04-17 01:13 28.68847 -88.00442 36122 ft 392 kts 285°
2026-04-17 01:14 28.70512 -88.06348 36127 ft 391 kts 285°
2026-04-17 01:14 28.72168 -88.12235 36133 ft 389 kts 285°
2026-04-17 01:15 28.73815 -88.18103 36126 ft 388 kts 285°
2026-04-17 01:15 28.75455 -88.23954 36126 ft 387 kts 285°
2026-04-17 01:16 28.77088 -88.29795 36121 ft 386 kts 285°
2026-04-17 01:16 28.78717 -88.35630 36121 ft 386 kts 285°
2026-04-17 01:17 28.80342 -88.41464 36126 ft 386 kts 285°
2026-04-17 01:17 28.81966 -88.47303 36127 ft 387 kts 285°
2026-04-17 01:18 28.83589 -88.53151 36122 ft 387 kts 285°
2026-04-17 01:18 28.85226 -88.59063 36134 ft 396 kts 285°
2026-04-17 01:19 28.86898 -88.65109 36119 ft 401 kts 285°
2026-04-17 01:19 28.89166 -88.70890 36125 ft 405 kts 297°
2026-04-17 01:20 28.92620 -88.76026 36126 ft 410 kts 306°
2026-04-17 01:20 28.96362 -88.80932 36140 ft 409 kts 306°
2026-04-17 01:21 29.00093 -88.85841 36128 ft 408 kts 306°
2026-04-17 01:21 29.03794 -88.90745 36117 ft 407 kts 306°
2026-04-17 01:22 29.07474 -88.95642 36115 ft 405 kts 306°
2026-04-17 01:22 29.11138 -89.00526 36117 ft 404 kts 306°
2026-04-17 01:23 29.14790 -89.05402 36115 ft 403 kts 306°
2026-04-17 01:23 29.18433 -89.10271 36116 ft 402 kts 306°
2026-04-17 01:24 29.22072 -89.15139 36117 ft 402 kts 306°
2026-04-17 01:24 29.25710 -89.20014 36130 ft 403 kts 305°
2026-04-17 01:25 29.29353 -89.24899 36122 ft 404 kts 305°
2026-04-17 01:25 29.33004 -89.29802 36116 ft 405 kts 305°
2026-04-17 01:26 29.36663 -89.34721 36121 ft 406 kts 305°
2026-04-17 01:26 29.40328 -89.39653 36117 ft 407 kts 305°
2026-04-17 01:27 29.43998 -89.44600 36114 ft 407 kts 305°
2026-04-17 01:27 29.47668 -89.49550 36117 ft 408 kts 305°
2026-04-17 01:28 29.51315 -89.54478 36113 ft 408 kts 305°
2026-04-17 01:28 29.54987 -89.59443 36136 ft 408 kts 305°
2026-04-17 01:29 29.60489 -89.66897 36115 ft 408 kts 305°
2026-04-17 01:30 29.64149 -89.71863 36110 ft 407 kts 305°
2026-04-17 01:30 29.67802 -89.76825 36114 ft 406 kts 305°
2026-04-17 01:31 29.71170 -89.81983 36119 ft 402 kts 300°
2026-04-17 01:31 29.74311 -89.87297 36108 ft 401 kts 300°
2026-04-17 01:32 29.77445 -89.92609 36112 ft 401 kts 300°
2026-04-17 01:32 29.80585 -89.97913 36112 ft 401 kts 300°
2026-04-17 01:33 29.83730 -90.03220 36120 ft 401 kts 300°
2026-04-17 01:33 29.86875 -90.08529 36107 ft 401 kts 300°
2026-04-17 01:34 29.90021 -90.13846 36103 ft 401 kts 300°
2026-04-17 01:34 29.93163 -90.19163 36101 ft 401 kts 300°
2026-04-17 01:35 29.96281 -90.24445 36100 ft 401 kts 299°
2026-04-17 01:35 29.99415 -90.29762 36102 ft 401 kts 299°
2026-04-17 01:36 30.02549 -90.35087 36102 ft 401 kts 299°
2026-04-17 01:36 30.05680 -90.40414 36104 ft 401 kts 299°
2026-04-17 01:37 30.08809 -90.45743 36111 ft 401 kts 299°
2026-04-17 01:37 30.11936 -90.51078 36140 ft 401 kts 299°
2026-04-17 01:38 30.15063 -90.56418 36113 ft 401 kts 299°
2026-04-17 01:38 30.18183 -90.61754 36113 ft 400 kts 299°
2026-04-17 01:39 30.21297 -90.67086 36102 ft 400 kts 299°
2026-04-17 01:39 30.24403 -90.72411 36090 ft 399 kts 299°
2026-04-17 01:40 30.27504 -90.77735 36104 ft 399 kts 299°
2026-04-17 01:40 30.30599 -90.83057 36085 ft 398 kts 299°
2026-04-17 01:41 30.33166 -90.87476 36087 ft 398 kts 299°
2026-04-17 01:41 30.36251 -90.92792 36082 ft 397 kts 298°
2026-04-17 01:42 30.39328 -90.98103 36078 ft 397 kts 298°
2026-04-17 01:42 30.42404 -91.03418 36084 ft 397 kts 298°
2026-04-17 01:43 30.45474 -91.08731 36070 ft 396 kts 298°
2026-04-17 01:43 30.48537 -91.14038 36074 ft 396 kts 298°
2026-04-17 01:44 30.51573 -91.19305 36071 ft 395 kts 298°
2026-04-17 01:44 30.54646 -91.24643 36076 ft 395 kts 298°
2026-04-17 01:45 30.57696 -91.29950 36072 ft 395 kts 298°
2026-04-17 01:45 30.60724 -91.35223 36064 ft 395 kts 298°
2026-04-17 01:46 30.63772 -91.40541 36068 ft 396 kts 298°
2026-04-17 01:46 30.66818 -91.45862 36062 ft 396 kts 298°
2026-04-17 01:47 30.69867 -91.51194 36062 ft 396 kts 298°
2026-04-17 01:47 30.72915 -91.56532 36062 ft 397 kts 298°
2026-04-17 01:48 30.75966 -91.61881 36066 ft 397 kts 298°
2026-04-17 01:48 30.79017 -91.67239 36063 ft 398 kts 298°
2026-04-17 01:49 30.82071 -91.72610 36062 ft 398 kts 298°
2026-04-17 01:49 30.85125 -91.77987 36060 ft 398 kts 298°
2026-04-17 01:50 30.88178 -91.83371 36058 ft 399 kts 298°
2026-04-17 01:50 30.91232 -91.88762 36056 ft 399 kts 298°
2026-04-17 01:51 30.94283 -91.94156 36082 ft 399 kts 298°
2026-04-17 01:51 30.97331 -91.99553 36078 ft 398 kts 298°
2026-04-17 01:52 31.00370 -92.04941 36071 ft 397 kts 298°
2026-04-17 01:52 31.03398 -92.10315 36073 ft 396 kts 297°
2026-04-17 01:53 31.06415 -92.15679 36072 ft 395 kts 297°
2026-04-17 01:53 31.09398 -92.20989 36071 ft 394 kts 297°
2026-04-17 01:54 31.12392 -92.26328 36065 ft 393 kts 297°
2026-04-17 01:54 31.15380 -92.31663 36067 ft 392 kts 297°
2026-04-17 01:55 31.18365 -92.36999 36051 ft 392 kts 297°
2026-04-17 01:55 31.21348 -92.42340 36047 ft 393 kts 297°
2026-04-17 01:56 31.24334 -92.47692 36052 ft 394 kts 297°
2026-04-17 01:56 31.26829 -92.53304 36051 ft 387 kts 287°
2026-04-17 01:57 31.28796 -92.59158 36042 ft 387 kts 288°
2026-04-17 01:57 31.30776 -92.65013 36048 ft 387 kts 288°
2026-04-17 01:58 31.32764 -92.70870 36053 ft 387 kts 288°
2026-04-17 01:58 31.34741 -92.76688 36052 ft 388 kts 288°
2026-04-17 01:59 31.36730 -92.82549 36066 ft 388 kts 288°
2026-04-17 01:59 31.38717 -92.88414 36050 ft 388 kts 288°
2026-04-17 02:00 31.40702 -92.94284 36047 ft 388 kts 288°
2026-04-17 02:00 31.42684 -93.00157 36053 ft 388 kts 287°
2026-04-17 02:01 31.44664 -93.06035 36048 ft 388 kts 287°
2026-04-17 02:01 31.46643 -93.11917 36044 ft 388 kts 287°
2026-04-17 02:02 31.48618 -93.17800 36078 ft 388 kts 287°
2026-04-17 02:02 31.50592 -93.23690 36051 ft 388 kts 287°
2026-04-17 02:03 31.52561 -93.29576 36037 ft 388 kts 287°
2026-04-17 02:03 31.54524 -93.35455 36041 ft 387 kts 287°
2026-04-17 02:04 31.56481 -93.41328 36045 ft 386 kts 287°
2026-04-17 02:04 31.58435 -93.47200 36045 ft 386 kts 287°
2026-04-17 02:05 31.60383 -93.53064 36042 ft 386 kts 287°
2026-04-17 02:05 31.62064 -93.59014 36043 ft 383 kts 283°
2026-04-17 02:06 31.63533 -93.65021 36040 ft 383 kts 283°
2026-04-17 02:06 31.65004 -93.71027 36044 ft 383 kts 283°
2026-04-17 02:07 31.66486 -93.76990 36042 ft 383 kts 283°
2026-04-17 02:07 31.67989 -93.82997 36035 ft 384 kts 283°
2026-04-17 02:08 31.69492 -93.89005 36041 ft 384 kts 283°
2026-04-17 02:08 31.70995 -93.95024 36039 ft 384 kts 283°
2026-04-17 02:09 31.72496 -94.01048 36036 ft 385 kts 283°
2026-04-17 02:09 31.73997 -94.07083 36066 ft 385 kts 283°
2026-04-17 02:10 31.75497 -94.13129 36043 ft 385 kts 283°
2026-04-17 02:10 31.76994 -94.19177 36034 ft 385 kts 283°
2026-04-17 02:11 31.78486 -94.25217 36029 ft 385 kts 283°
2026-04-17 02:11 31.79972 -94.31246 36034 ft 384 kts 283°
2026-04-17 02:12 31.81453 -94.37270 36032 ft 383 kts 283°
2026-04-17 02:12 31.82919 -94.43244 36034 ft 383 kts 283°
2026-04-17 02:13 31.84389 -94.49252 36027 ft 382 kts 282°
2026-04-17 02:13 31.85854 -94.55251 36034 ft 382 kts 282°
2026-04-17 02:14 31.87316 -94.61250 36032 ft 382 kts 282°
2026-04-17 02:14 31.88776 -94.67257 36019 ft 382 kts 282°
2026-04-17 02:15 31.90234 -94.73267 36020 ft 382 kts 282°
2026-04-17 02:15 31.91690 -94.79281 36015 ft 382 kts 282°
2026-04-17 02:16 31.93145 -94.85305 36013 ft 383 kts 282°
2026-04-17 02:16 31.94598 -94.91337 36004 ft 383 kts 282°
2026-04-17 02:17 31.96048 -94.97369 36004 ft 383 kts 282°
2026-04-17 02:17 31.97497 -95.03409 36029 ft 383 kts 282°
2026-04-17 02:18 31.98945 -95.09458 36015 ft 384 kts 282°
2026-04-17 02:18 32.00392 -95.15518 36005 ft 385 kts 282°
2026-04-17 02:19 32.01829 -95.21546 36002 ft 385 kts 282°
2026-04-17 02:19 32.03282 -95.27656 36000 ft 385 kts 282°
2026-04-17 02:20 32.04714 -95.33693 35997 ft 385 kts 282°
2026-04-17 02:20 32.06152 -95.39766 36003 ft 385 kts 281°
2026-04-17 02:21 32.07586 -95.45838 35994 ft 384 kts 281°
2026-04-17 02:21 32.09014 -95.51899 35992 ft 383 kts 281°
2026-04-17 02:22 32.10435 -95.57946 35995 ft 382 kts 281°
2026-04-17 02:22 32.11145 -95.60973 35732 ft 386 kts 281°
2026-04-17 02:22 32.11862 -95.64037 35193 ft 387 kts 282°
2026-04-17 02:22 32.12576 -95.67088 34573 ft 386 kts 282°
2026-04-17 02:23 32.13291 -95.70143 33901 ft 387 kts 282°
2026-04-17 02:23 32.14008 -95.73214 33116 ft 389 kts 282°
2026-04-17 02:23 32.14727 -95.76295 32376 ft 390 kts 282°
2026-04-17 02:23 32.15446 -95.79383 31622 ft 391 kts 282°
2026-04-17 02:24 32.16166 -95.82480 30849 ft 391 kts 282°
2026-04-17 02:24 32.16886 -95.85582 30252 ft 393 kts 282°
2026-04-17 02:24 32.17615 -95.88725 29580 ft 399 kts 282°
2026-04-17 02:24 32.18343 -95.91863 28964 ft 394 kts 282°
2026-04-17 02:25 32.19062 -95.94967 28381 ft 389 kts 282°
2026-04-17 02:25 32.19772 -95.98029 27810 ft 385 kts 282°
2026-04-17 02:25 32.20474 -96.01065 27263 ft 381 kts 282°
2026-04-17 02:25 32.21168 -96.04066 26715 ft 378 kts 282°
2026-04-17 02:26 32.21861 -96.07075 26174 ft 384 kts 282°
2026-04-17 02:26 32.22564 -96.10136 25612 ft 387 kts 282°
2026-04-17 02:26 32.23268 -96.13192 25043 ft 384 kts 282°
2026-04-17 02:26 32.23966 -96.16225 24475 ft 382 kts 282°
2026-04-17 02:27 32.24658 -96.19238 23916 ft 379 kts 282°
2026-04-17 02:27 32.25347 -96.22239 23313 ft 377 kts 282°
2026-04-17 02:27 32.26030 -96.25221 22721 ft 375 kts 282°
2026-04-17 02:27 32.26707 -96.28179 22159 ft 371 kts 282°
2026-04-17 02:28 32.27432 -96.31088 21605 ft 370 kts 289°
2026-04-17 02:28 32.28717 -96.33725 21083 ft 373 kts 304°
2026-04-17 02:28 32.30498 -96.35957 20593 ft 373 kts 311°
2026-04-17 02:28 32.32348 -96.38052 20084 ft 374 kts 312°
2026-04-17 02:29 32.34239 -96.40160 19563 ft 374 kts 312°
2026-04-17 02:29 32.36122 -96.42270 19041 ft 372 kts 312°
2026-04-17 02:29 32.37984 -96.44378 18521 ft 369 kts 312°
2026-04-17 02:29 32.39826 -96.46482 17962 ft 367 kts 312°
2026-04-17 02:30 32.41654 -96.48580 17424 ft 364 kts 311°
2026-04-17 02:30 32.43462 -96.50661 16926 ft 361 kts 311°
2026-04-17 02:30 32.45235 -96.52704 16595 ft 353 kts 311°
2026-04-17 02:30 32.46966 -96.54695 16437 ft 341 kts 311°
2026-04-17 02:31 32.48101 -96.56002 16349 ft 333 kts 311°
2026-04-17 02:31 32.49727 -96.57875 15997 ft 331 kts 311°
2026-04-17 02:31 32.51944 -96.60417 15481 ft 333 kts 311°
2026-04-17 02:31 32.53047 -96.61681 15214 ft 333 kts 311°
2026-04-17 02:32 32.54706 -96.63582 14801 ft 331 kts 311°
2026-04-17 02:32 32.56356 -96.65472 14400 ft 329 kts 311°
2026-04-17 02:32 32.58007 -96.67350 13979 ft 329 kts 311°
2026-04-17 02:32 32.59663 -96.69214 13561 ft 328 kts 311°
2026-04-17 02:33 32.61298 -96.71048 13362 ft 319 kts 311°
2026-04-17 02:33 32.62881 -96.72828 13228 ft 309 kts 311°
2026-04-17 02:33 32.64416 -96.74556 13099 ft 299 kts 311°
2026-04-17 02:33 32.65900 -96.76230 12978 ft 290 kts 311°
2026-04-17 02:34 32.67344 -96.77865 12875 ft 285 kts 311°
2026-04-17 02:34 32.68769 -96.79483 12782 ft 283 kts 311°
2026-04-17 02:34 32.70203 -96.81115 12690 ft 288 kts 311°
2026-04-17 02:34 32.71660 -96.82774 12598 ft 291 kts 311°
2026-04-17 02:35 32.73123 -96.84436 12485 ft 290 kts 311°
2026-04-17 02:35 32.74562 -96.86067 12353 ft 282 kts 311°
2026-04-17 02:35 32.77340 -96.89223 11818 ft 271 kts 311°
2026-04-17 02:36 32.78724 -96.90723 11503 ft 271 kts 320°
2026-04-17 02:36 32.80502 -96.91509 11136 ft 280 kts 351°
2026-04-17 02:36 32.82448 -96.91568 10805 ft 280 kts 358°
2026-04-17 02:36 32.84397 -96.91536 10454 ft 280 kts 358°
2026-04-17 02:37 32.86346 -96.91497 10106 ft 280 kts 358°
2026-04-17 02:37 32.88298 -96.91465 9757 ft 280 kts 358°
2026-04-17 02:37 32.90246 -96.91440 9375 ft 280 kts 358°
2026-04-17 02:37 32.92191 -96.91421 8987 ft 280 kts 358°
2026-04-17 02:38 32.94153 -96.91406 8542 ft 282 kts 358°
2026-04-17 02:38 32.96123 -96.91393 8108 ft 283 kts 358°
2026-04-17 02:38 32.98094 -96.91380 7681 ft 284 kts 358°
2026-04-17 02:38 33.00072 -96.91367 7249 ft 284 kts 358°
2026-04-17 02:39 33.02049 -96.91354 6821 ft 284 kts 358°
2026-04-17 02:39 33.04029 -96.91341 6409 ft 285 kts 358°
2026-04-17 02:39 33.06007 -96.91329 5921 ft 284 kts 358°
2026-04-17 02:39 33.07977 -96.91316 5489 ft 282 kts 358°
2026-04-17 02:40 33.09898 -96.91629 5023 ft 278 kts 335°
2026-04-17 02:40 33.11431 -96.92861 4615 ft 265 kts 306°
2026-04-17 02:40 33.12319 -96.94713 4184 ft 254 kts 285°
2026-04-17 02:40 33.12927 -96.96680 3749 ft 252 kts 283°
2026-04-17 02:41 33.13512 -96.98652 3327 ft 252 kts 282°
2026-04-17 02:41 33.14105 -97.00611 3055 ft 248 kts 283°
2026-04-17 02:41 33.14621 -97.02516 2991 ft 232 kts 270°
2026-04-17 02:41 33.14406 -97.04250 2988 ft 200 kts 231°
2026-04-17 02:42 33.13374 -97.05159 3009 ft 180 kts 188°
2026-04-17 02:42 33.12180 -97.05196 3001 ft 166 kts 184°
2026-04-17 02:42 33.11080 -97.05311 2998 ft 152 kts 184°
2026-04-17 02:42 33.10058 -97.05344 2983 ft 144 kts 182°
2026-04-17 02:43 33.09065 -97.05360 2981 ft 142 kts 181°
2026-04-17 02:43 33.08077 -97.05373 2926 ft 141 kts 181°
2026-04-17 02:43 33.07106 -97.05387 2881 ft 139 kts 180°
2026-04-17 02:43 33.06134 -97.05405 2846 ft 140 kts 182°
2026-04-17 02:44 33.05150 -97.05409 2767 ft 143 kts 181°
2026-04-17 02:44 33.04148 -97.05411 2682 ft 144 kts 181°
2026-04-17 02:44 33.03174 -97.05416 2623 ft 137 kts 181°
2026-04-17 02:44 33.02217 -97.05421 2534 ft 138 kts 180°
2026-04-17 02:45 33.01300 -97.05418 2430 ft 127 kts 181°
2026-04-17 02:45 33.00427 -97.05427 2329 ft 126 kts 182°
2026-04-17 02:45 32.99547 -97.05429 2151 ft 128 kts 181°
2026-04-17 02:45 32.98656 -97.05432 1996 ft 129 kts 181°
2026-04-17 02:46 32.97753 -97.05436 1839 ft 131 kts 180°
2026-04-17 02:46 32.96835 -97.05441 1677 ft 132 kts 180°
2026-04-17 02:46 32.95928 -97.05440 1508 ft 130 kts 180°
2026-04-17 02:46 32.95011 -97.05448 1344 ft 134 kts 178°
2026-04-17 02:47 32.94066 -97.05448 1175 ft 139 kts 179°
2026-04-17 02:47 32.93094 -97.05454 1012 ft 144 kts 179°
2026-04-17 02:47 32.92093 -97.05459 785 ft 144 kts 178°
2026-04-17 02:47 32.91105 -97.05468 622 ft 136 kts 178°